www.pogodaiklimat.ru

Погода и климат >> Архив погоды >> Пакистан >> Sibi


ПОГОДА в Sibi

  • Прогноз погоды в Sibi
  • Монитор погоды в Sibi
  • Климат города

АРХИВ ПОГОДЫ в Sibi

Время (UTC), дата Ветер
(напр.,м/с)
 
Видим.   Явления Облачность Т
(С)
Тd
(С)
f
(%)
Тe
(С)
Тes
(С)
Комфортность P
(гПа)
Po
(гПа)
Тmin
(С)
Tmax
(С)
R
(мм)
R24
(мм)
S
(см)
15 14.11 штиль 0 4000 м ясно +25.6 +6.4 29 +25 +25 комфорт 1012.3 1000.0
18 14.11 штиль 0 4000 м ясно +21.7 +9.5 46 +23 +23 комфорт 1014.0 1000.0
21 14.11 штиль 0 4000 м ясно +19.4 +10.3 56 +20 +20 1013.4 1000.0
00 15.11 штиль 0 4000 м ясно +18.3 +10.1 59 +19 +19 1012.8 997.0
03 15.11 штиль 0 50 км ?/? +26.0 +7.8 31 1017.2 998.0
06 15.11 штиль 0 10 км ясно +26.7 +6.7 28 +26 +37 жарко 1018.3 1000.0
09 15.11 штиль 0 10 км ясно +30.0 +9.8 29 +30 +40 жарко 1015.8 1000.0
12 15.11 штиль 0 10 км ясно +28.9 +9.5 30 +29 +29 жарко 1014.8 999.6 +31.1
15 15.11 штиль 0 4000 м ясно +22.2 +11.3 50 +24 +24 комфорт 1016.8 1000.0
18 15.11 штиль 0 4000 м ясно +18.9 +7.2 47 +19 +19 1017.9 1000.0
21 15.11 штиль 0 4000 м ясно +17.2 +5.7 47 +17 +17 1017.4 1000.0
00 16.11 штиль 0 4000 м ясно +16.1 +5.7 50 +16 +16 1016.8 1000.6
03 16.11 штиль 0 10 км ясно +15.0 +5.6 53 +15 +16 1017.5 1001.5 +12.5
06 16.11 штиль 0 10 км ясно +22.8 +10.4 45 +25 +35 комфорт 1018.0 1000.0
09 16.11 штиль 0 10 км ясно +26.7 +11.8 39 +28 +38 жарко 1014.8 1000.0
12 16.11 штиль 0 10 км ясно +28.4 +13.5 40 +30 +31 жарко 1011.1 995.9 +30.1
15 16.11 штиль 0 4000 м ясно +23.3 +13.2 53 +26 +26 жарко 1012.6 1000.0
18 16.11 штиль 0 4000 м ясно +20.6 +11.6 56 +22 +22 комфорт 1013.8 1000.0
21 16.11 штиль 0 4000 м ясно +18.3 +11.2 63 +19 +19 1013.5 1000.0
00 17.11 штиль 0 4000 м ясно +16.7 +10.9 69 +17 +17 1013.3 997.4
03 17.11 штиль 0 10 км ясно +18.3 +13.2 72 +19 +19 1014.5 998.7 +13.5
06 17.11 штиль 0 10 км ясно +24.4 +12.4 47 +26 +36 жарко 1014.6 1000.8
09 17.11 штиль 0 10 км 5/5 300 м
[Sc]
+28.3 +12.4 37 +29 +34 жарко 1009.8 1000.0
12 17.11 штиль 0 10 км ясно +30.6 +14.1 37 +32 +33 жарко 1007.5 992.4 +32.1
15 17.11 штиль 0 4000 м ясно +23.9 +13.9 54 +26 +26 жарко 1009.5 1000.0
18 17.11 штиль 0 4000 м ясно +21.7 +11.7 53 +24 +24 комфорт 1011.1 1000.0
21 17.11 штиль 0 4000 м ясно +19.4 +11.4 60 +20 +20 1010.8 1000.0
00 18.11 штиль 0 4000 м ясно +17.8 +10.6 63 +18 +18 1010.3 994.5
03 18.11 штиль 0 10 км ясно +20.6 +11.6 56 +22 +23 комфорт 1011.1 995.4 +13.1
06 18.11 штиль 0 10 км ясно +23.9 +12.8 50 +26 +36 жарко 1012.6 1000.0
09 18.11 штиль 0 10 км ясно +31.1 +12.6 32 +32 +42 жарко 1009.0 1000.0
12 18.11 штиль 0 10 км ясно +32.8 +14.4 33 +34 +35 очень
жарко
1007.7 992.7 +33.5
15 18.11 СЗ 1 4000 м ясно +28.3 +11.2 35 +29 +29 жарко 1009.5 1000.0
18 18.11 СЗ 2 4000 м ясно +23.9 +11.7 46 +25 +25 комфорт 1011.8 1012.0
21 18.11 штиль 0 4000 м ясно +21.7 +10.6 49 +23 +23 комфорт 1011.5 1000.0
00 19.11 штиль 0 4000 м ясно +18.9 +10.8 59 +20 +20 1011.3 995.6
03 19.11 штиль 0 10 км ясно +21.1 +12.2 57 +23 +24 комфорт 1013.1 997.5 +12.1
06 19.11 штиль 0 10 км ясно +24.4 +14.5 54 +27 +37 жарко 1016.8 999.4
09 19.11 штиль 0 10 км ясно +30.6 +11.8 31 +31 +41 жарко 1014.4 1000.0
12 19.11 штиль 0 10 км ясно +30.6 +11.8 31 +31 +32 жарко 1013.3 998.2 +32.1
15 19.11 штиль 0 4000 м ясно +27.2 +12.1 39 +28 +28 жарко 1014.9 1000.0
18 19.11 штиль 0 4000 м ясно +21.7 +10.6 49 +23 +23 комфорт 1017.0 1000.0
21 19.11 штиль 0 4000 м ясно +18.3 +10.1 59 +19 +19 1016.4 1000.0
00 20.11 штиль 0 4000 м ясно +15.6 +8.7 63 +15 +15 1016.0 1000.0
03 20.11 штиль 0 10 км ясно +17.8 +9.8 59 +18 +18 1017.0 1001.2 +11.1
06 20.11 штиль 0 10 км ясно +23.3 +11.1 46 +26 +36 жарко 1020.1 1000.0
09 20.11 штиль 0 10 км ясно +27.8 +11.6 37 +29 +39 жарко 1016.6 1000.0
12 20.11 штиль 0 10 км ясно +29.4 +11.5 33 +30 +31 жарко 1014.9 999.7 +31.1
15 20.11 штиль 0 4000 м ясно +22.8 +12.6 53 +26 +26 жарко 1016.4 1000.0
18 20.11 штиль 0 4000 м ясно +18.9 +9.6 55 +19 +19 1018.3 1000.0
21 20.11 штиль 0 4000 м ясно +16.7 +8.8 60 +17 +17 1017.9 1000.0
00 21.11 штиль 0 4000 м ясно +14.4 +9.7 73 +14 +14 1017.4 1001.4
03 21.11 штиль 0 10 км ясно +16.1 +8.1 59 +16 +17 1019.1 1003.1 +12.5
06 21.11 штиль 0 50 км ?/? +25.0 0.0 19 +23 +23 комфорт 1016.7 1017.0
09 21.11 штиль 0 50 км ?/? +21.0 -20.2 5 +19 +19 1017.0 1017.0
12 21.11 штиль 0 10 км ясно +29.4 +11.5 33 +30 +31 жарко 1012.6 997.4 +31.1

 

Местоположение метеостанции Sibi (Пакистан): широта 29.55 долгота 67.88 высота над уровнем моря 134 м.

В архиве по умолчанию представлена погода в Sibi за последнюю неделю. Архивные данные за месяц целиком и за предыдущие месяцы, начиная с января 2011 года, Вы можете получить, выбрав интересующий диапазон дат из раскрывающегося списка и нажав кнопку "Ввод!".


*Определитесь, кто Вы:
робот инопланетянин человек

Внимание! Время в таблицах - всемирное. Для получения местного времени необходимо прибавить поправку, которая в Sibi равна 5 ч.

Смотрите также архив погоды в соседних городах и на ближайших метеорологических станциях:

Погода в Quetta Airport (Пакистан) (124 км)
Погода в Kalat (Пакистан) (139 км)
Погода в Jacobabad (Пакистан) (150 км)
Погода в Barkhan (Пакистан) (181 км)
Погода в Khuzdar (Пакистан) (227 км)
Погода в Rohri (Пакистан) (232 км)
Погода в Zhob (Пакистан) (252 км)
Погода в Khanpur (Пакистан) (290 км)
Погода в Kandahar (Афганистан) (292 км)
Погода в Pad Idan (Пакистан) (301 км)

Пояснения к столбцам:

Ветер - указаны скорость ветра в м/с - средняя за 10 мин, порывы в срок и между сроками (в фигурных скобках) и направление, откуда дует ветер: С - северный, СВ - северо-восточный, В - восточный, ЮВ - юго-восточный, Ю - южный, ЮЗ - юго-западный, З - западный, СЗ - северо-западный.
Видимость - горизонтальная дальность видимости в метрах или километрах. При видимости от 1 до 10 км при отсутствии осадков обычно наблюдается дымка, при ухудшении видимости до 1 км и менее - туман. В сухую погоду видимость может ухудшаться дымом, пылью или мглою.
Явления - указаны атмосферные явления, наблюдавшиеся в срок или в последний час перед сроком; фигурными скобками обозначены явления, наблюдавшиеся между сроками (за 1-3 часа до срока); квадратными скобками обозначены град или гололедные отложения с указанием их диаметра в мм.
Облачность - указаны через наклонную черту общая и нижняя облачность в баллах и высота нижней границы облаков в метрах; квадратными скобками обозначены формы облаков: Ci - перистые, Cs - перисто-слоистые, Cc - перисто-кучевые, Ac - высококучевые, As - высокослоистые, Sc - слоисто-кучевые, Ns - слоисто-дождевые, Cu - кучевые, Cb - кучево-дождевые. Подробнее классификацию облаков см. в Атласе облаков (PDF).
T - Температура воздуха - температура, измеренная на высоте 2 м над землей.
Td - Температура точки росы - температура, при понижении до которой содержащийся в воздухе водяной пар достигнет насыщения.
f - Относительная влажность воздуха - влажноcть воздуха, измеренная на высоте 2 м над землей.
Te - Эффективная температура - температура, которую ощущает одетый по сезону человек в тени. Характеристика душности погоды. При расчете учитывается влияние влажности воздуха и скорости ветра на теплоощущения человека.
Tes - Эффективная температура на солнце - температура, которую ощущает человек, с поправкой на солнечный нагрев. Характеристика знойности погоды. Зависит от высоты солнца над горизонтом, облачности и скорости ветра. Ночью, в пасмурную погоду, а также при ветре 12 м/с и более поправка равна нулю.
P - Атмосферное давление - приведенное к уровню моря атмосферное давление.
Po - Атмосферное давление - измеренное на уровне метеостанции атмосферное давление.
Tmin - Минимальная температура - минимум температуры воздуха на высоте 2 м над землей.
Tmax - Максимальная температура - максимум температуры воздуха на высоте 2 м над землей.
R - Количество осадков - Количество выпавших осадков за период времени, мм. При наведении курсора мыши на число - период времени, за который выпало указанное количество осадков.
R24 - Количество осадков - Количество выпавших осадков за 24 часа, мм.
S - Снежный покров - Высота снежного покрова, см. При наведении курсора мыши на число - состояние снежного покрова и степень покрытия местности в баллах.